Weather History for Imperial, NE

Change the Weather History Date:

Sunday, June 22, 2014

  Actual Average Record
Temperature  
Mean Temperature 71 °F 72 °F  
Max Temperature 83 °F 86 °F 104 °F (1937)
Min Temperature 59 °F 58 °F 40 °F (1903)
Degree Days  
Heating Degree Days 0 1  
Month to date heating degree days 29 32  
Since 1 June heating degree days 29 32  
Cooling Degree Days 6 8  
Month to date cooling degree days 112 115  
Year to date cooling degree days 173 159  
Since 1 June cooling degree days 112 115  
Growing Degree Days 22 (Base 50)    
Moisture  
Dew Point 59 °F    
Average Humidity 67    
Maximum Humidity 90    
Minimum Humidity 43    
Precipitation  
Precipitation 0.19 in 0.10 in 1.30 in (1896)
Sea Level Pressure  
Sea Level Pressure 29.88 in    
Wind  
Wind Speed 8 mph (NE)    
Max Wind Speed 35 mph    
Max Gust Speed 43 mph    
Visibility 10 miles    
Events Rain , Thunderstorm    
T = Trace of Precipitation, MM = Missing Value Source: NWS Daily Summary

Daily Weather History Graph

Daily Weather History Graph

Search for Another Location

Airport:

Trip Planner

Search our weather history database for the weather conditions in past years. The results will help you decide how hot, cold, wet, or windy it might be!

Date:

Astronomy

Jun. 22, 2014 Rise Set
Actual Time 5:16 AM MDT 8:20 PM MDT
Civil Twilight 4:43 AM MDT 8:53 PM MDT
Nautical Twilight 4:00 AM MDT 9:36 PM MDT
Astronomical Twilight 3:10 AM MDT 10:26 PM MDT
Moon 2:06 AM MDT (6/22) 4:02 PM MDT (6/22)
Length of Visible Light 16h 10m
Length of Day
15h 04m
Waning Crescent, 20% of the Moon is Illuminated
Jun 22
Waning Crescent
Jun 27
New
Jul 5
First Quarter
Jul 12
Full
Jul 18
Last Quarter

Hourly Weather History & Observations

Time (MDT) Temp. Heat Index Dew Point Humidity Pressure Visibility Wind Dir Wind Speed Gust Speed Precip Events Conditions
12:53 AM 64.9 °F - 60.1 °F 84% 29.76 in 10.0 mi Calm Calm - N/A   Clear
1:53 AM 64.0 °F - 60.1 °F 87% 29.78 in 10.0 mi NW 5.8 mph - N/A   Clear
2:53 AM 64.0 °F - 59.0 °F 84% 29.82 in 10.0 mi North 11.5 mph - N/A   Partly Cloudy
3:53 AM 63.0 °F - 57.9 °F 84% 29.83 in 10.0 mi North 8.1 mph - N/A   Scattered Clouds
4:53 AM 61.0 °F - 55.9 °F 83% 29.84 in 10.0 mi North 3.5 mph - N/A   Clear
5:53 AM 61.0 °F - 57.0 °F 87% 29.86 in 10.0 mi East 5.8 mph - N/A   Clear
6:53 AM 64.0 °F - 59.0 °F 84% 29.87 in 10.0 mi North - - N/A   Clear
7:53 AM 66.0 °F - 60.1 °F 81% 29.87 in 10.0 mi SSE 3.5 mph - N/A   Clear
8:53 AM 73.0 °F - 59.0 °F 61% 29.86 in 10.0 mi WNW 3.5 mph - N/A   Clear
9:53 AM 75.0 °F - 55.9 °F 51% 29.88 in 10.0 mi Calm Calm - N/A   Clear
10:53 AM 79.0 °F - 57.9 °F 48% 29.88 in 10.0 mi NNW 5.8 mph - N/A   Clear
11:53 AM 79.0 °F - 59.0 °F 50% 29.89 in 10.0 mi North 12.7 mph - N/A   Scattered Clouds
12:53 PM 81.0 °F 81.7 °F 61.0 °F 50% 29.89 in 10.0 mi NE 10.4 mph - N/A   Partly Cloudy
1:53 PM 80.1 °F 80.9 °F 60.1 °F 50% 29.88 in 10.0 mi NE 8.1 mph - N/A   Scattered Clouds
2:53 PM 82.0 °F 82.0 °F 57.9 °F 44% 29.87 in 10.0 mi NE 8.1 mph - N/A   Partly Cloudy
3:53 PM 82.9 °F 82.8 °F 59.0 °F 44% 29.85 in 10.0 mi NE 9.2 mph - N/A   Clear
4:53 PM 80.1 °F 80.7 °F 59.0 °F 48% 29.85 in 10.0 mi East 8.1 mph - N/A   Clear
5:53 PM 78.1 °F - 60.1 °F 54% 29.84 in 10.0 mi East 4.6 mph - N/A   Clear
6:53 PM 75.9 °F - 62.1 °F 62% 29.86 in 10.0 mi SE 4.6 mph - N/A   Clear
7:53 PM 73.0 °F - 64.0 °F 73% 29.86 in 10.0 mi NE 6.9 mph - N/A   Partly Cloudy
8:53 PM 71.1 °F - 62.1 °F 73% 29.90 in 10.0 mi NE 5.8 mph - N/A   Partly Cloudy
9:53 PM 70.0 °F - 63.0 °F 78% 29.95 in 10.0 mi SSW 9.2 mph - N/A Thunderstorm Mostly Cloudy
10:09 PM 61.0 °F - 55.9 °F 83% 30.02 in 10.0 mi SSW 18.4 mph 34.5 mph 0.00 in Rain , Thunderstorm Light Thunderstorms and Rain
10:53 PM 62.1 °F - 57.9 °F 86% 29.94 in 4.0 mi WNW 9.2 mph 23.0 mph 0.10 in Rain , Thunderstorm Thunderstorms and Rain
11:22 PM 63.0 °F - 59.0 °F 87% 29.97 in 6.0 mi ESE 20.7 mph 26.5 mph 0.06 in Rain Rain
11:32 PM 63.0 °F - 60.1 °F 90% 29.95 in 7.0 mi East 19.6 mph - 0.08 in Rain , Thunderstorm Light Rain
11:53 PM 62.6 °F - 59.0 °F 88% 29.98 in 10.0 mi WSW 9.2 mph - N/A Rain Light Rain